Time,TemperatureF,DewpointF,PressureIn,WindDirection,WindDirectionDegrees,WindSpeedMPH,WindSpeedGustMPH,Humidity,HourlyPrecipIn,Conditions,Clouds,dailyrainin,SoftwareType,DateUTC
2013-06-06 00:02:00,56.6,49.9,29.99,NW,315,0.0,0.4,78,0.00,,,0.00,WUHU216HW,2013-06-06 07:02:00,
2013-06-06 00:07:00,56.5,49.8,29.99,NW,315,0.0,0.4,78,0.00,,,0.00,WUHU216HW,2013-06-06 07:07:00,
2013-06-06 00:12:00,56.3,49.6,29.99,NNW,338,0.0,0.0,78,0.00,,,0.00,WUHU216HW,2013-06-06 07:12:00,
2013-06-06 00:17:00,56.1,49.7,29.99,NNW,338,0.0,0.0,79,0.00,,,0.00,WUHU216HW,2013-06-06 07:17:00,
2013-06-06 00:22:00,55.7,49.3,29.99,NNW,338,0.0,0.0,79,0.00,,,0.00,WUHU216HW,2013-06-06 07:22:00,
2013-06-06 00:27:00,55.6,49.2,29.99,NNW,338,0.0,0.4,79,0.00,,,0.00,WUHU216HW,2013-06-06 07:27:00,
2013-06-06 00:32:00,55.4,49.0,29.99,NNW,338,0.0,0.4,79,0.00,,,0.00,WUHU216HW,2013-06-06 07:32:00,
2013-06-06 00:37:00,55.2,49.2,29.99,NNW,338,0.2,0.2,80,0.00,,,0.00,WUHU216HW,2013-06-06 07:37:00,
2013-06-06 00:42:00,55.0,49.0,29.99,NW,315,0.4,0.4,80,0.00,,,0.00,WUHU216HW,2013-06-06 07:42:00,
2013-06-06 00:47:00,55.0,49.0,29.99,NNW,338,0.0,0.4,80,0.00,,,0.00,WUHU216HW,2013-06-06 07:47:00,
2013-06-06 00:52:00,54.8,48.8,29.99,NNW,338,0.0,0.4,80,0.00,,,0.00,WUHU216HW,2013-06-06 07:52:00,
2013-06-06 00:57:00,54.8,49.1,29.99,NNW,338,0.4,0.4,81,0.00,,,0.00,WUHU216HW,2013-06-06 07:57:00,
2013-06-06 01:02:00,54.8,49.1,29.99,NNW,338,0.0,0.4,81,0.00,,,0.00,WUHU216HW,2013-06-06 08:02:00,
2013-06-06 01:07:00,54.7,49.0,29.99,NNW,338,0.4,0.4,81,0.00,,,0.00,WUHU216HW,2013-06-06 08:07:00,
2013-06-06 01:12:00,54.5,48.8,29.99,NNW,338,0.0,0.4,81,0.00,,,0.00,WUHU216HW,2013-06-06 08:12:00,
2013-06-06 01:17:00,54.3,48.6,29.99,NNW,338,0.0,0.2,81,0.00,,,0.00,WUHU216HW,2013-06-06 08:17:00,
2013-06-06 01:22:00,54.3,48.6,29.99,NNW,338,0.0,0.2,81,0.00,,,0.00,WUHU216HW,2013-06-06 08:22:00,
2013-06-06 01:27:00,54.3,48.6,29.99,North,0,0.4,0.4,81,0.00,,,0.00,WUHU216HW,2013-06-06 08:27:00,
2013-06-06 01:32:00,54.3,48.6,29.99,NNW,338,0.0,0.4,81,0.00,,,0.00,WUHU216HW,2013-06-06 08:32:00,
2013-06-06 01:37:00,54.3,48.6,29.98,North,0,0.2,0.4,81,0.00,,,0.00,WUHU216HW,2013-06-06 08:37:00,
2013-06-06 01:42:00,54.3,48.6,29.98,NNW,338,0.2,0.4,81,0.00,,,0.00,WUHU216HW,2013-06-06 08:42:00,
2013-06-06 01:47:00,54.1,48.4,29.98,North,0,0.0,0.4,81,0.00,,,0.00,WUHU216HW,2013-06-06 08:47:00,
2013-06-06 01:52:00,53.9,48.2,29.98,NW,315,0.2,0.4,81,0.00,,,0.00,WUHU216HW,2013-06-06 08:52:00,
2013-06-06 01:57:00,53.6,47.9,29.98,NW,315,0.0,0.7,81,0.00,,,0.00,WUHU216HW,2013-06-06 08:57:00,
2013-06-06 02:02:00,53.4,48.1,29.98,NNW,338,0.2,0.7,82,0.00,,,0.00,WUHU216HW,2013-06-06 09:02:00,
2013-06-06 02:07:00,53.4,48.1,29.99,NNW,338,0.0,0.4,82,0.00,,,0.00,WUHU216HW,2013-06-06 09:07:00,
2013-06-06 02:12:00,53.2,47.9,29.99,NNW,338,0.0,0.4,82,0.00,,,0.00,WUHU216HW,2013-06-06 09:12:00,
2013-06-06 02:17:00,53.0,47.7,29.99,NNW,338,0.0,0.4,82,0.00,,,0.00,WUHU216HW,2013-06-06 09:17:00,
2013-06-06 02:22:00,53.0,47.7,29.99,NNW,338,0.4,0.4,82,0.00,,,0.00,WUHU216HW,2013-06-06 09:22:00,
2013-06-06 02:27:00,53.0,47.7,29.99,NNW,338,0.4,0.4,82,0.00,,,0.00,WUHU216HW,2013-06-06 09:27:00,
2013-06-06 02:32:00,52.9,47.6,29.99,NNW,338,0.4,0.7,82,0.00,,,0.00,WUHU216HW,2013-06-06 09:32:00,
2013-06-06 02:37:00,52.9,47.6,29.99,North,0,0.4,0.7,82,0.00,,,0.00,WUHU216HW,2013-06-06 09:37:00,
2013-06-06 02:42:00,52.9,47.6,29.99,North,0,0.2,0.7,82,0.00,,,0.00,WUHU216HW,2013-06-06 09:42:00,
2013-06-06 02:47:00,52.9,47.9,29.99,NNW,338,0.2,0.7,83,0.00,,,0.00,WUHU216HW,2013-06-06 09:47:00,
2013-06-06 02:52:00,52.7,47.4,29.99,NW,315,0.4,0.4,82,0.00,,,0.00,WUHU216HW,2013-06-06 09:52:00,
2013-06-06 02:57:00,52.5,47.5,29.99,NNW,338,0.0,0.4,83,0.00,,,0.00,WUHU216HW,2013-06-06 09:57:00,
2013-06-06 03:02:00,52.3,47.3,29.98,NNW,338,0.4,0.4,83,0.00,,,0.00,WUHU216HW,2013-06-06 10:02:00,
2013-06-06 03:07:00,52.3,47.3,29.98,NNW,338,0.0,0.4,83,0.00,,,0.00,WUHU216HW,2013-06-06 10:07:00,
2013-06-06 03:12:00,52.3,47.3,29.98,NNW,338,0.0,0.4,83,0.00,,,0.00,WUHU216HW,2013-06-06 10:12:00,
2013-06-06 03:17:00,52.3,47.3,29.98,NNW,338,0.2,0.4,83,0.00,,,0.00,WUHU216HW,2013-06-06 10:17:00,
2013-06-06 03:22:00,52.3,47.6,29.98,North,0,0.2,0.4,84,0.00,,,0.00,WUHU216HW,2013-06-06 10:22:00,
2013-06-06 03:27:00,52.1,47.4,29.98,North,0,0.4,0.4,84,0.00,,,0.00,WUHU216HW,2013-06-06 10:27:00,
2013-06-06 03:32:00,52.1,47.4,29.98,North,0,0.0,0.4,84,0.00,,,0.00,WUHU216HW,2013-06-06 10:32:00,
2013-06-06 03:37:00,52.0,47.3,29.98,WNW,293,0.0,0.9,84,0.00,,,0.00,WUHU216HW,2013-06-06 10:37:00,
2013-06-06 03:42:00,51.8,47.1,29.98,NW,315,0.2,0.9,84,0.00,,,0.00,WUHU216HW,2013-06-06 10:42:00,
2013-06-06 03:47:00,51.8,47.1,29.98,NW,315,0.0,0.4,84,0.00,,,0.00,WUHU216HW,2013-06-06 10:47:00,
2013-06-06 03:52:00,51.8,47.1,29.98,NW,315,0.0,0.4,84,0.00,,,0.00,WUHU216HW,2013-06-06 10:52:00,
2013-06-06 03:57:00,51.6,46.9,29.98,NNW,338,0.2,0.4,84,0.00,,,0.00,WUHU216HW,2013-06-06 10:57:00,
2013-06-06 04:02:00,51.4,46.7,29.98,NNW,338,0.0,0.4,84,0.00,,,0.00,WUHU216HW,2013-06-06 11:02:00,
2013-06-06 04:07:00,51.4,47.0,29.98,NNW,338,0.0,0.4,85,0.00,,,0.00,WUHU216HW,2013-06-06 11:07:00,
2013-06-06 04:12:00,51.4,47.0,29.98,NNW,338,0.0,0.2,85,0.00,,,0.00,WUHU216HW,2013-06-06 11:12:00,
2013-06-06 04:17:00,51.4,47.0,29.98,NNW,338,0.0,0.2,85,0.00,,,0.00,WUHU216HW,2013-06-06 11:17:00,
2013-06-06 04:22:00,51.4,47.0,29.98,NNW,338,0.0,0.0,85,0.00,,,0.00,WUHU216HW,2013-06-06 11:22:00,
2013-06-06 04:27:00,51.4,47.0,29.98,North,0,0.2,0.7,85,0.00,,,0.00,WUHU216HW,2013-06-06 11:27:00,
2013-06-06 04:32:00,51.4,47.0,29.98,NNW,338,0.4,0.7,85,0.00,,,0.00,WUHU216HW,2013-06-06 11:32:00,
2013-06-06 04:37:00,51.4,47.0,29.98,NNW,338,0.0,0.4,85,0.00,,,0.00,WUHU216HW,2013-06-06 11:37:00,
2013-06-06 04:42:00,51.2,46.8,29.98,NNW,338,0.0,0.4,85,0.00,,,0.00,WUHU216HW,2013-06-06 11:42:00,
2013-06-06 04:47:00,51.2,46.8,29.98,NNW,338,0.0,0.0,85,0.00,,,0.00,WUHU216HW,2013-06-06 11:47:00,
2013-06-06 04:52:00,51.1,46.7,29.98,NNW,338,0.0,0.0,85,0.00,,,0.00,WUHU216HW,2013-06-06 11:52:00,
2013-06-06 04:57:00,51.1,46.7,29.98,NNW,338,0.0,0.2,85,0.00,,,0.00,WUHU216HW,2013-06-06 11:57:00,
2013-06-06 05:02:00,51.1,46.7,29.98,NNW,338,0.0,0.4,85,0.00,,,0.00,WUHU216HW,2013-06-06 12:02:00,
2013-06-06 05:07:00,50.9,46.8,29.98,NNW,338,0.0,0.4,86,0.00,,,0.00,WUHU216HW,2013-06-06 12:07:00,
2013-06-06 05:12:00,50.9,46.8,29.98,NNW,338,0.0,0.0,86,0.00,,,0.00,WUHU216HW,2013-06-06 12:12:00,
2013-06-06 05:17:00,50.9,46.8,29.98,NNW,338,0.0,0.4,86,0.00,,,0.00,WUHU216HW,2013-06-06 12:17:00,
2013-06-06 05:22:00,50.9,46.8,29.98,NNW,338,0.0,0.4,86,0.00,,,0.00,WUHU216HW,2013-06-06 12:22:00,
2013-06-06 05:27:00,50.9,46.8,29.98,NNW,338,0.0,0.0,86,0.00,,,0.00,WUHU216HW,2013-06-06 12:27:00,
2013-06-06 05:32:00,50.9,46.8,29.98,NNW,338,0.0,0.0,86,0.00,,,0.00,WUHU216HW,2013-06-06 12:32:00,
2013-06-06 05:37:00,50.9,46.8,29.98,NNW,338,0.0,0.2,86,0.00,,,0.00,WUHU216HW,2013-06-06 12:37:00,
2013-06-06 05:42:00,50.9,46.8,29.98,NNW,338,0.0,0.4,86,0.00,,,0.00,WUHU216HW,2013-06-06 12:42:00,
2013-06-06 05:47:00,50.9,46.8,29.99,NW,315,0.0,0.4,86,0.00,,,0.00,WUHU216HW,2013-06-06 12:47:00,
2013-06-06 05:52:00,50.9,46.8,29.99,NW,315,0.0,0.4,86,0.00,,,0.00,WUHU216HW,2013-06-06 12:52:00,
2013-06-06 05:57:00,50.7,46.7,29.98,NNW,338,0.0,0.4,86,0.00,,,0.00,WUHU216HW,2013-06-06 12:57:00,
2013-06-06 06:02:00,50.7,46.7,29.98,NNW,338,0.0,0.2,86,0.00,,,0.00,WUHU216HW,2013-06-06 13:02:00,
2013-06-06 06:07:00,50.9,46.8,29.99,NNW,338,0.2,0.2,86,0.00,,,0.00,WUHU216HW,2013-06-06 13:07:00,
2013-06-06 06:12:00,50.9,46.8,29.99,NNW,338,0.0,0.2,86,0.00,,,0.00,WUHU216HW,2013-06-06 13:12:00,
2013-06-06 06:17:00,50.9,46.8,29.99,NW,315,0.2,0.4,86,0.00,,,0.00,WUHU216HW,2013-06-06 13:17:00,
2013-06-06 06:22:00,50.9,47.1,29.99,NW,315,0.0,0.4,87,0.00,,,0.00,WUHU216HW,2013-06-06 13:22:00,
2013-06-06 06:27:00,51.1,47.3,29.99,NW,315,0.0,0.4,87,0.00,,,0.00,WUHU216HW,2013-06-06 13:27:00,
2013-06-06 06:32:00,51.1,47.3,29.99,NW,315,0.0,0.2,87,0.00,,,0.00,WUHU216HW,2013-06-06 13:32:00,
2013-06-06 06:37:00,51.2,47.4,30.00,NW,315,0.0,0.4,87,0.00,,,0.00,WUHU216HW,2013-06-06 13:37:00,
2013-06-06 06:42:00,51.4,47.6,30.00,NW,315,0.0,0.4,87,0.00,,,0.00,WUHU216HW,2013-06-06 13:42:00,
2013-06-06 06:47:00,51.4,47.6,30.00,NNW,338,0.0,0.0,87,0.00,,,0.00,WUHU216HW,2013-06-06 13:47:00,
2013-06-06 06:52:00,51.6,48.1,30.00,East,90,0.0,0.0,88,0.00,,,0.00,WUHU216HW,2013-06-06 13:52:00,
2013-06-06 06:57:00,51.8,48.3,29.99,East,90,0.0,0.0,88,0.00,,,0.00,WUHU216HW,2013-06-06 13:57:00,
2013-06-06 07:02:00,52.0,48.5,30.00,NNW,338,0.0,0.2,88,0.00,,,0.00,WUHU216HW,2013-06-06 14:02:00,
2013-06-06 07:07:00,52.1,48.6,30.00,NNW,338,0.0,0.2,88,0.00,,,0.00,WUHU216HW,2013-06-06 14:07:00,
2013-06-06 07:12:00,52.3,48.8,30.00,NNW,338,0.0,0.2,88,0.00,,,0.00,WUHU216HW,2013-06-06 14:12:00,
2013-06-06 07:17:00,52.5,49.3,29.99,NNW,338,0.0,0.2,89,0.00,,,0.00,WUHU216HW,2013-06-06 14:17:00,
2013-06-06 07:22:00,52.7,49.5,29.99,NNW,338,0.0,0.7,89,0.00,,,0.00,WUHU216HW,2013-06-06 14:22:00,
2013-06-06 07:27:00,52.9,49.7,29.99,North,0,0.0,0.7,89,0.00,,,0.00,WUHU216HW,2013-06-06 14:27:00,
2013-06-06 07:32:00,53.0,49.8,29.99,SE,135,1.6,1.6,89,0.00,,,0.00,WUHU216HW,2013-06-06 14:32:00,
2013-06-06 07:37:00,53.4,50.2,29.99,SSE,158,1.3,1.6,89,0.00,,,0.00,WUHU216HW,2013-06-06 14:37:00,
2013-06-06 07:42:00,53.6,50.4,29.99,ESE,113,0.0,1.6,89,0.00,,,0.00,WUHU216HW,2013-06-06 14:42:00,
2013-06-06 07:47:00,53.8,50.6,30.00,SSW,203,0.7,1.6,89,0.00,,,0.00,WUHU216HW,2013-06-06 14:47:00,
2013-06-06 07:52:00,53.9,50.7,30.00,South,180,0.9,1.3,89,0.00,,,0.00,WUHU216HW,2013-06-06 14:52:00,
2013-06-06 07:57:00,54.3,51.1,29.99,SE,135,0.4,1.3,89,0.00,,,0.00,WUHU216HW,2013-06-06 14:57:00,
2013-06-06 08:02:00,54.7,51.5,30.00,SE,135,0.2,1.1,89,0.00,,,0.00,WUHU216HW,2013-06-06 15:02:00,
2013-06-06 08:07:00,54.8,51.6,29.99,South,180,1.6,1.6,89,0.00,,,0.00,WUHU216HW,2013-06-06 15:07:00,
2013-06-06 08:12:00,55.4,52.2,29.99,SE,135,0.9,2.0,89,0.00,,,0.00,WUHU216HW,2013-06-06 15:12:00,
2013-06-06 08:17:00,55.7,52.2,29.99,SW,225,2.0,2.5,88,0.00,,,0.00,WUHU216HW,2013-06-06 15:17:00,
2013-06-06 08:22:00,56.3,52.5,30.00,SW,225,1.8,2.5,87,0.00,,,0.00,WUHU216HW,2013-06-06 15:22:00,
2013-06-06 08:27:00,56.6,52.8,29.99,SW,225,1.6,2.0,87,0.00,,,0.00,WUHU216HW,2013-06-06 15:27:00,
2013-06-06 08:32:00,57.2,53.4,30.00,SW,225,2.5,2.5,87,0.00,,,0.00,WUHU216HW,2013-06-06 15:32:00,
2013-06-06 08:37:00,57.4,53.2,30.00,SW,225,1.8,2.7,86,0.00,,,0.00,WUHU216HW,2013-06-06 15:37:00,
2013-06-06 08:42:00,57.9,53.4,30.00,SSW,203,1.6,2.7,85,0.00,,,0.00,WUHU216HW,2013-06-06 15:42:00,
2013-06-06 08:47:00,58.3,53.8,30.00,SW,225,2.0,2.5,85,0.00,,,0.00,WUHU216HW,2013-06-06 15:47:00,
2013-06-06 08:52:00,58.6,53.8,30.00,SSW,203,1.8,2.5,84,0.00,,,0.00,WUHU216HW,2013-06-06 15:52:00,
2013-06-06 08:57:00,59.0,53.9,30.00,SW,225,2.0,2.2,83,0.00,,,0.00,WUHU216HW,2013-06-06 15:57:00,
2013-06-06 09:02:00,59.3,54.2,30.00,SW,225,3.1,3.4,83,0.00,,,0.00,WUHU216HW,2013-06-06 16:02:00,
2013-06-06 09:07:00,59.7,54.2,30.00,SSW,203,2.5,3.4,82,0.00,,,0.00,WUHU216HW,2013-06-06 16:07:00,
2013-06-06 09:12:00,60.1,54.3,30.00,SW,225,2.2,3.1,81,0.00,,,0.00,WUHU216HW,2013-06-06 16:12:00,
2013-06-06 09:17:00,60.2,54.4,30.00,SW,225,2.5,2.7,81,0.00,,,0.00,WUHU216HW,2013-06-06 16:17:00,
2013-06-06 09:45:00,61.7,54.9,29.99,SW,225,4.3,4.3,78,0.00,,,0.00,WUHU216HW,2013-06-06 16:45:00,
2013-06-06 09:50:00,61.7,54.9,29.99,SW,225,4.3,4.3,78,0.00,,,0.00,WUHU216HW,2013-06-06 16:50:00,
2013-06-06 09:55:00,61.7,54.9,29.99,SW,225,4.3,4.3,78,0.00,,,0.00,WUHU216HW,2013-06-06 16:55:00,
2013-06-06 10:00:00,62.4,55.2,29.99,SW,225,4.3,4.3,77,0.00,,,0.00,WUHU216HW,2013-06-06 17:00:00,
2013-06-06 10:05:00,62.4,55.2,29.99,SW,225,4.3,4.3,77,0.00,,,0.00,WUHU216HW,2013-06-06 17:05:00,
2013-06-06 10:30:00,63.8,55.8,29.99,SW,225,2.9,2.9,75,0.00,,,0.00,WUHU216HW,2013-06-06 17:30:00,
2013-06-06 10:34:00,63.8,55.8,29.99,SW,225,2.9,2.9,75,0.00,,,0.00,WUHU216HW,2013-06-06 17:34:00,
2013-06-06 10:39:00,63.8,55.8,29.99,SW,225,2.9,2.9,75,0.00,,,0.00,WUHU216HW,2013-06-06 17:39:00,
2013-06-06 11:00:00,65.8,56.7,29.99,SSW,203,3.4,3.4,72,0.00,,,0.00,WUHU216HW,2013-06-06 18:00:00,
2013-06-06 11:04:00,65.8,56.7,29.99,SSW,203,3.4,3.4,72,0.00,,,0.00,WUHU216HW,2013-06-06 18:04:00,
2013-06-06 11:30:00,67.6,57.6,29.99,East,90,1.6,1.6,70,0.00,,,0.00,WUHU216HW,2013-06-06 18:30:00,
2013-06-06 11:35:00,67.6,57.6,29.99,East,90,1.6,1.6,70,0.00,,,0.00,WUHU216HW,2013-06-06 18:35:00,
2013-06-06 12:00:00,68.7,57.9,29.99,WSW,248,0.9,0.9,68,0.00,,,0.00,WUHU216HW,2013-06-06 19:00:00,
2013-06-06 12:04:00,68.7,57.9,29.99,WSW,248,0.9,0.9,68,0.00,,,0.00,WUHU216HW,2013-06-06 19:04:00,
2013-06-06 12:30:00,69.8,57.7,29.99,SSW,203,3.8,3.8,65,0.00,,,0.00,WUHU216HW,2013-06-06 19:30:00,
2013-06-06 12:34:00,69.8,57.7,29.99,SSW,203,3.8,3.8,65,0.00,,,0.00,WUHU216HW,2013-06-06 19:34:00,
2013-06-06 12:39:00,69.8,57.7,29.99,SSW,203,3.8,3.8,65,0.00,,,0.00,WUHU216HW,2013-06-06 19:39:00,
2013-06-06 13:38:00,71.9,59.3,29.97,SW,225,2.5,2.5,64,0.00,,,0.00,WUHU216HW,2013-06-06 20:38:00,
2013-06-06 13:43:00,72.1,59.0,29.97,SSE,158,1.1,3.1,63,0.00,,,0.00,WUHU216HW,2013-06-06 20:43:00,
2013-06-06 13:48:00,72.3,58.7,29.97,SW,225,2.9,5.6,62,0.00,,,0.00,WUHU216HW,2013-06-06 20:48:00,
2013-06-06 13:53:00,72.3,58.3,29.96,SSW,203,4.7,7.4,61,0.00,,,0.00,WUHU216HW,2013-06-06 20:53:00,
2013-06-06 13:58:00,72.1,58.1,29.96,SW,225,4.0,7.8,61,0.00,,,0.00,WUHU216HW,2013-06-06 20:58:00,
2013-06-06 14:03:00,72.1,58.1,29.96,SSW,203,3.4,7.8,61,0.00,,,0.00,WUHU216HW,2013-06-06 21:03:00,
2013-06-06 14:08:00,72.1,58.6,29.96,South,180,1.1,5.4,62,0.00,,,0.00,WUHU216HW,2013-06-06 21:08:00,
2013-06-06 14:13:00,72.3,58.3,29.96,SSW,203,1.3,4.0,61,0.00,,,0.00,WUHU216HW,2013-06-06 21:13:00,
2013-06-06 14:18:00,72.3,58.3,29.97,SSW,203,1.8,4.5,61,0.00,,,0.00,WUHU216HW,2013-06-06 21:18:00,
2013-06-06 14:23:00,72.3,57.8,29.97,SSW,203,1.3,4.7,60,0.00,,,0.00,WUHU216HW,2013-06-06 21:23:00,
2013-06-06 14:28:00,72.3,57.8,29.97,East,90,0.7,4.7,60,0.00,,,0.00,WUHU216HW,2013-06-06 21:28:00,
2013-06-06 14:33:00,72.3,57.8,29.97,SW,225,3.1,4.5,60,0.00,,,0.00,WUHU216HW,2013-06-06 21:33:00,
2013-06-06 14:38:00,72.3,57.8,29.97,SSW,203,3.6,6.3,60,0.00,,,0.00,WUHU216HW,2013-06-06 21:38:00,
2013-06-06 14:43:00,72.3,57.8,29.97,SW,225,3.6,6.3,60,0.00,,,0.00,WUHU216HW,2013-06-06 21:43:00,
2013-06-06 14:48:00,72.3,57.8,29.97,South,180,3.8,5.6,60,0.00,,,0.00,WUHU216HW,2013-06-06 21:48:00,
2013-06-06 14:53:00,72.1,57.2,29.96,SW,225,2.9,5.6,59,0.00,,,0.00,WUHU216HW,2013-06-06 21:53:00,
2013-06-06 14:58:00,72.1,57.2,29.97,SW,225,1.8,4.5,59,0.00,,,0.00,WUHU216HW,2013-06-06 21:58:00,
2013-06-06 15:03:00,72.1,56.7,29.97,SW,225,3.4,5.8,58,0.00,,,0.00,WUHU216HW,2013-06-06 22:03:00,
2013-06-06 15:08:00,72.3,56.9,29.97,SSE,158,1.8,5.8,58,0.00,,,0.00,WUHU216HW,2013-06-06 22:08:00,
2013-06-06 15:13:00,72.3,56.4,29.97,SW,225,4.0,4.3,57,0.00,,,0.00,WUHU216HW,2013-06-06 22:13:00,
2013-06-06 15:18:00,72.3,55.9,29.97,South,180,4.9,5.6,56,0.00,,,0.00,WUHU216HW,2013-06-06 22:18:00,
2013-06-06 15:23:00,72.1,55.7,29.97,SW,225,2.5,5.6,56,0.00,,,0.00,WUHU216HW,2013-06-06 22:23:00,
2013-06-06 15:28:00,72.1,55.2,29.97,SSW,203,2.0,5.6,55,0.00,,,0.00,WUHU216HW,2013-06-06 22:28:00,
2013-06-06 15:33:00,71.9,55.0,29.97,SW,225,3.8,4.5,55,0.00,,,0.00,WUHU216HW,2013-06-06 22:33:00,
2013-06-06 15:38:00,71.9,54.5,29.97,SW,225,0.4,4.7,54,0.00,,,0.00,WUHU216HW,2013-06-06 22:38:00,
2013-06-06 15:43:00,71.9,54.0,29.97,SW,225,1.3,5.4,53,0.00,,,0.00,WUHU216HW,2013-06-06 22:43:00,
2013-06-06 15:48:00,71.9,54.5,29.96,SSW,203,2.5,5.4,54,0.00,,,0.00,WUHU216HW,2013-06-06 22:48:00,
2013-06-06 15:53:00,71.9,54.5,29.96,SSW,203,2.5,4.0,54,0.00,,,0.00,WUHU216HW,2013-06-06 22:53:00,
2013-06-06 15:58:00,71.9,54.0,29.96,SW,225,3.1,4.7,53,0.00,,,0.00,WUHU216HW,2013-06-06 22:58:00,
2013-06-06 16:03:00,71.9,54.0,29.97,SW,225,2.7,5.1,53,0.00,,,0.00,WUHU216HW,2013-06-06 23:03:00,
2013-06-06 16:08:00,71.9,54.5,29.97,SW,225,0.9,5.1,54,0.00,,,0.00,WUHU216HW,2013-06-06 23:08:00,
2013-06-06 16:13:00,72.1,54.7,29.97,SW,225,2.9,4.3,54,0.00,,,0.00,WUHU216HW,2013-06-06 23:13:00,
2013-06-06 16:18:00,71.9,55.0,29.97,SW,225,4.9,4.9,55,0.00,,,0.00,WUHU216HW,2013-06-06 23:18:00,
2013-06-06 16:23:00,71.9,54.5,29.97,WSW,248,2.9,4.9,54,0.00,,,0.00,WUHU216HW,2013-06-06 23:23:00,
2013-06-06 16:28:00,72.1,54.7,29.97,SW,225,3.1,4.9,54,0.00,,,0.00,WUHU216HW,2013-06-06 23:28:00,
2013-06-06 16:33:00,72.1,54.7,29.96,SW,225,1.8,4.3,54,0.00,,,0.00,WUHU216HW,2013-06-06 23:33:00,
2013-06-06 16:38:00,71.9,54.5,29.97,SW,225,1.1,4.7,54,0.00,,,0.00,WUHU216HW,2013-06-06 23:38:00,
2013-06-06 16:43:00,71.9,54.5,29.97,SW,225,1.8,4.7,54,0.00,,,0.00,WUHU216HW,2013-06-06 23:43:00,
2013-06-06 16:48:00,71.9,54.5,29.97,SW,225,2.0,4.7,54,0.00,,,0.00,WUHU216HW,2013-06-06 23:48:00,
2013-06-06 16:53:00,71.9,54.5,29.97,SW,225,2.2,3.4,54,0.00,,,0.00,WUHU216HW,2013-06-06 23:53:00,
2013-06-06 16:58:00,71.8,54.9,29.97,SSW,203,3.4,3.4,55,0.00,,,0.00,WUHU216HW,2013-06-06 23:58:00,
2013-06-06 17:03:00,71.9,55.5,29.97,South,180,1.8,3.8,56,0.00,,,0.00,WUHU216HW,2013-06-07 00:03:00,
2013-06-06 17:08:00,71.8,55.4,29.97,NE,45,1.6,4.7,56,0.00,,,0.00,WUHU216HW,2013-06-07 00:08:00,
2013-06-06 17:13:00,71.9,56.0,29.97,SW,225,1.1,4.7,57,0.00,,,0.00,WUHU216HW,2013-06-07 00:13:00,
2013-06-06 17:18:00,71.9,55.5,29.97,SSW,203,3.6,4.7,56,0.00,,,0.00,WUHU216HW,2013-06-07 00:18:00,
2013-06-06 17:23:00,71.9,55.5,29.97,SW,225,2.5,4.7,56,0.00,,,0.00,WUHU216HW,2013-06-07 00:23:00,
2013-06-06 17:28:00,71.9,55.5,29.97,SSE,158,3.1,3.6,56,0.00,,,0.00,WUHU216HW,2013-06-07 00:28:00,
2013-06-06 17:33:00,71.8,54.9,29.97,ENE,68,0.9,3.1,55,0.00,,,0.00,WUHU216HW,2013-06-07 00:33:00,
2013-06-06 17:38:00,71.8,54.9,29.97,SW,225,0.4,4.5,55,0.00,,,0.00,WUHU216HW,2013-06-07 00:38:00,
2013-06-06 17:43:00,71.6,54.7,29.97,WSW,248,0.4,4.5,55,0.00,,,0.00,WUHU216HW,2013-06-07 00:43:00,
2013-06-06 17:48:00,71.4,54.5,29.97,North,0,2.7,3.8,55,0.00,,,0.00,WUHU216HW,2013-06-07 00:48:00,
2013-06-06 17:53:00,71.4,53.5,29.97,West,270,1.6,3.1,53,0.00,,,0.00,WUHU216HW,2013-06-07 00:53:00,
2013-06-06 17:58:00,71.2,53.8,29.97,SW,225,0.4,3.1,54,0.00,,,0.00,WUHU216HW,2013-06-07 00:58:00,
2013-06-06 18:03:00,71.0,53.6,29.97,SW,225,2.0,2.9,54,0.00,,,0.00,WUHU216HW,2013-06-07 01:03:00,
2013-06-06 18:08:00,70.9,54.1,29.97,SW,225,1.1,3.4,55,0.00,,,0.00,WUHU216HW,2013-06-07 01:08:00,
2013-06-06 18:13:00,70.9,53.5,29.97,SW,225,1.1,4.0,54,0.00,,,0.00,WUHU216HW,2013-06-07 01:13:00,
2013-06-06 18:18:00,70.7,53.4,29.98,SW,225,0.4,4.0,54,0.00,,,0.00,WUHU216HW,2013-06-07 01:18:00,
2013-06-06 18:23:00,70.7,53.4,29.97,SSW,203,1.6,3.1,54,0.00,,,0.00,WUHU216HW,2013-06-07 01:23:00,
2013-06-06 18:28:00,70.5,53.7,29.97,SW,225,0.4,3.1,55,0.00,,,0.00,WUHU216HW,2013-06-07 01:28:00,
2013-06-06 18:33:00,70.3,53.5,29.97,NE,45,0.0,2.5,55,0.00,,,0.00,WUHU216HW,2013-06-07 01:33:00,
2013-06-06 18:38:00,70.3,53.5,29.97,SE,135,2.0,3.1,55,0.00,,,0.00,WUHU216HW,2013-06-07 01:38:00,
2013-06-06 18:43:00,70.1,53.8,29.97,ESE,113,1.1,3.4,56,0.00,,,0.00,WUHU216HW,2013-06-07 01:43:00,
2013-06-06 18:48:00,70.0,53.2,29.97,NE,45,0.0,3.4,55,0.00,,,0.00,WUHU216HW,2013-06-07 01:48:00,
2013-06-06 18:53:00,69.8,53.0,29.97,NNW,338,0.9,3.6,55,0.00,,,0.00,WUHU216HW,2013-06-07 01:53:00,
2013-06-06 18:58:00,69.6,53.3,29.97,NNE,23,1.1,3.6,56,0.00,,,0.00,WUHU216HW,2013-06-07 01:58:00,
2013-06-06 19:03:00,69.4,52.7,29.97,SW,225,0.0,2.2,55,0.00,,,0.00,WUHU216HW,2013-06-07 02:03:00,
2013-06-06 19:08:00,69.1,52.4,29.97,East,90,0.4,2.2,55,0.00,,,0.00,WUHU216HW,2013-06-07 02:08:00,
2013-06-06 19:13:00,68.9,51.7,29.97,SE,135,1.8,1.8,54,0.00,,,0.00,WUHU216HW,2013-06-07 02:13:00,
2013-06-06 19:18:00,68.7,51.5,29.97,East,90,0.9,3.4,54,0.00,,,0.00,WUHU216HW,2013-06-07 02:18:00,
2013-06-06 19:23:00,68.3,50.6,29.97,SW,225,0.4,3.4,53,0.00,,,0.00,WUHU216HW,2013-06-07 02:23:00,
2013-06-06 19:28:00,68.2,51.0,29.98,ENE,68,0.4,2.2,54,0.00,,,0.00,WUHU216HW,2013-06-07 02:28:00,
2013-06-06 19:33:00,67.8,50.7,29.98,North,0,0.4,3.6,54,0.00,,,0.00,WUHU216HW,2013-06-07 02:33:00,
2013-06-06 19:38:00,67.6,51.0,29.98,WSW,248,0.4,3.6,55,0.00,,,0.00,WUHU216HW,2013-06-07 02:38:00,
2013-06-06 19:43:00,67.4,50.8,29.98,SSE,158,0.2,2.0,55,0.00,,,0.00,WUHU216HW,2013-06-07 02:43:00,
2013-06-06 19:48:00,67.3,51.2,29.98,WNW,293,0.0,1.8,56,0.00,,,0.00,WUHU216HW,2013-06-07 02:48:00,
2013-06-06 19:53:00,67.1,51.5,29.98,WNW,293,0.0,1.1,57,0.00,,,0.00,WUHU216HW,2013-06-07 02:53:00,
2013-06-06 19:58:00,66.9,51.3,29.98,North,0,0.4,1.1,57,0.00,,,0.00,WUHU216HW,2013-06-07 02:58:00,
2013-06-06 20:03:00,66.7,51.6,29.98,NNW,338,0.0,1.1,58,0.00,,,0.00,WUHU216HW,2013-06-07 03:03:00,
2013-06-06 20:08:00,66.5,51.4,29.98,SW,225,0.0,1.3,58,0.00,,,0.00,WUHU216HW,2013-06-07 03:08:00,
2013-06-06 20:13:00,66.4,51.3,29.98,SSW,203,0.0,2.2,58,0.00,,,0.00,WUHU216HW,2013-06-07 03:13:00,
2013-06-06 20:18:00,66.0,50.9,29.98,WSW,248,0.0,2.2,58,0.00,,,0.00,WUHU216HW,2013-06-07 03:18:00,
2013-06-06 20:23:00,65.8,51.2,29.98,WSW,248,0.2,1.1,59,0.00,,,0.00,WUHU216HW,2013-06-07 03:23:00,
2013-06-06 20:28:00,65.5,50.9,29.98,WSW,248,0.0,0.4,59,0.00,,,0.00,WUHU216HW,2013-06-07 03:28:00,
2013-06-06 20:33:00,65.1,50.1,29.97,WSW,248,0.0,0.2,58,0.00,,,0.00,WUHU216HW,2013-06-07 03:33:00,
2013-06-06 20:38:00,64.9,49.9,29.98,WSW,248,0.4,0.9,58,0.00,,,0.00,WUHU216HW,2013-06-07 03:38:00,
2013-06-06 20:43:00,64.4,49.4,29.98,NW,315,0.2,0.9,58,0.00,,,0.00,WUHU216HW,2013-06-07 03:43:00,
2013-06-06 20:48:00,64.0,49.5,29.98,NW,315,0.4,0.9,59,0.00,,,0.00,WUHU216HW,2013-06-07 03:48:00,
2013-06-06 20:53:00,63.7,49.2,29.98,NNW,338,0.0,0.7,59,0.00,,,0.00,WUHU216HW,2013-06-07 03:53:00,
2013-06-06 20:58:00,63.3,48.4,29.98,NNW,338,0.4,0.7,58,0.00,,,0.00,WUHU216HW,2013-06-07 03:58:00,
2013-06-06 21:01:00,63.3,48.9,29.98,North,0,0.0,0.7,59,0.00,,,0.00,WUHU216HW,2013-06-07 04:01:00,
2013-06-06 21:02:00,63.3,48.9,29.98,North,0,0.4,0.7,59,0.00,,,0.00,WUHU216HW,2013-06-07 04:02:00,
2013-06-06 21:07:00,62.9,48.5,29.98,North,0,0.0,0.4,59,0.00,,,0.00,WUHU216HW,2013-06-07 04:07:00,
2013-06-06 21:12:00,62.6,48.7,29.98,NNW,338,0.4,0.4,60,0.00,,,0.00,WUHU216HW,2013-06-07 04:12:00,
2013-06-06 21:17:00,62.2,48.3,29.98,NNW,338,0.4,0.9,60,0.00,,,0.00,WUHU216HW,2013-06-07 04:17:00,
2013-06-06 21:22:00,61.5,48.1,29.98,NNW,338,0.4,0.9,61,0.00,,,0.00,WUHU216HW,2013-06-07 04:22:00,
2013-06-06 21:27:00,61.1,48.1,29.98,NNW,338,0.2,1.3,62,0.00,,,0.00,WUHU216HW,2013-06-07 04:27:00,
2013-06-06 21:32:00,60.8,48.3,29.98,North,0,0.9,1.3,63,0.00,,,0.00,WUHU216HW,2013-06-07 04:32:00,
2013-06-06 21:37:00,60.2,47.7,29.98,NNE,23,0.4,0.9,63,0.00,,,0.00,WUHU216HW,2013-06-07 04:37:00,
2013-06-06 21:42:00,60.1,48.0,29.97,NNW,338,0.4,0.9,64,0.00,,,0.00,WUHU216HW,2013-06-07 04:42:00,
2013-06-06 21:47:00,59.9,48.3,29.97,NW,315,0.0,0.9,65,0.00,,,0.00,WUHU216HW,2013-06-07 04:47:00,
2013-06-06 21:52:00,59.5,47.9,29.98,North,0,0.7,0.9,65,0.00,,,0.00,WUHU216HW,2013-06-07 04:52:00,
2013-06-06 21:57:00,59.2,47.6,29.97,NW,315,0.4,0.7,65,0.00,,,0.00,WUHU216HW,2013-06-07 04:57:00,
2013-06-06 22:02:00,58.8,47.6,29.98,NW,315,0.0,0.7,66,0.00,,,0.00,WUHU216HW,2013-06-07 05:02:00,
2013-06-06 22:07:00,58.6,47.4,29.98,NNW,338,0.0,0.4,66,0.00,,,0.00,WUHU216HW,2013-06-07 05:07:00,
2013-06-06 22:12:00,58.4,47.6,29.98,NNW,338,0.2,0.4,67,0.00,,,0.00,WUHU216HW,2013-06-07 05:12:00,
2013-06-06 22:17:00,58.3,47.5,29.98,NNW,338,0.0,0.4,67,0.00,,,0.00,WUHU216HW,2013-06-07 05:17:00,
2013-06-06 22:22:00,57.9,47.1,29.98,North,0,0.4,0.4,67,0.00,,,0.00,WUHU216HW,2013-06-07 05:22:00,
2013-06-06 22:27:00,57.5,47.2,29.98,NNW,338,0.2,0.4,68,0.00,,,0.00,WUHU216HW,2013-06-07 05:27:00,
2013-06-06 22:32:00,57.4,47.1,29.98,North,0,0.0,0.7,68,0.00,,,0.00,WUHU216HW,2013-06-07 05:32:00,
2013-06-06 22:37:00,57.0,47.1,29.98,NNW,338,0.0,0.7,69,0.00,,,0.00,WUHU216HW,2013-06-07 05:37:00,
2013-06-06 22:42:00,56.8,46.9,29.98,NNW,338,0.4,0.7,69,0.00,,,0.00,WUHU216HW,2013-06-07 05:42:00,
2013-06-06 22:47:00,56.5,47.0,29.98,NNW,338,0.4,0.7,70,0.00,,,0.00,WUHU216HW,2013-06-07 05:47:00,
2013-06-06 22:52:00,56.5,47.0,29.98,North,0,0.4,0.4,70,0.00,,,0.00,WUHU216HW,2013-06-07 05:52:00,
2013-06-06 22:57:00,56.3,47.1,29.99,NNW,338,0.0,0.4,71,0.00,,,0.00,WUHU216HW,2013-06-07 05:57:00,
2013-06-06 23:02:00,56.1,46.9,29.99,NNW,338,0.0,0.4,71,0.00,,,0.00,WUHU216HW,2013-06-07 06:02:00,
2013-06-06 23:07:00,55.9,46.7,29.99,NNW,338,0.4,0.4,71,0.00,,,0.00,WUHU216HW,2013-06-07 06:07:00,
2013-06-06 23:12:00,55.7,46.2,29.99,NNW,338,0.4,0.4,70,0.00,,,0.00,WUHU216HW,2013-06-07 06:12:00,
2013-06-06 23:17:00,55.7,46.6,29.98,NNW,338,0.4,0.7,71,0.00,,,0.00,WUHU216HW,2013-06-07 06:17:00,
2013-06-06 23:22:00,55.6,46.1,29.98,NNW,338,0.0,0.7,70,0.00,,,0.00,WUHU216HW,2013-06-07 06:22:00,
2013-06-06 23:27:00,55.4,45.9,29.99,NNW,338,0.4,0.9,70,0.00,,,0.00,WUHU216HW,2013-06-07 06:27:00,
2013-06-06 23:32:00,55.2,46.1,29.99,NNW,338,0.0,0.9,71,0.00,,,0.00,WUHU216HW,2013-06-07 06:32:00,
2013-06-06 23:37:00,55.0,45.9,29.99,NNW,338,0.0,0.9,71,0.00,,,0.00,WUHU216HW,2013-06-07 06:37:00,
2013-06-06 23:42:00,54.8,46.1,29.99,NNW,338,0.4,0.9,72,0.00,,,0.00,WUHU216HW,2013-06-07 06:42:00,
2013-06-06 23:47:00,54.8,46.1,29.99,NNW,338,0.4,0.7,72,0.00,,,0.00,WUHU216HW,2013-06-07 06:47:00,
2013-06-06 23:52:00,54.7,46.0,29.99,NW,315,0.7,1.1,72,0.00,,,0.00,WUHU216HW,2013-06-07 06:52:00,
2013-06-06 23:57:00,54.7,46.3,29.99,NW,315,0.4,1.1,73,0.00,,,0.00,WUHU216HW,2013-06-07 06:57:00,